RH
90 90 90 85 86 87 88 87 90 90 85 87 92 96 84 84 91 92 94 95 94 86 87 85 91 98 83 89 88 32 51 65 61 83 58 53 46 42 44 43 37 50 63 64 66 68 70
94 92 88 80 90 88 85 85 84 83 90 90 87 92 87 83 91 94 95 95 95 84 89 86 96 92 77 91 28 36 48 54 63 68 64 44 46 34 39 41 46 63 65 65 62 64 63
88 91 90 89 86 88 87 86 87 90 87 87 89 90 81 87 89 94 96 97 98 88 87 86 97 90 85 81 51 60 66 56 46 60 71 40 34 32 38 50 56 58 71 65 61 64 67
90 88 89 87 88 89 89 88 88 86 85 89 88 88 90 87 90 94 96 94 94 88 84 90 94 90 96 44 40 56 64 61 75 60 56 44 31 36 31 47 54 64 62 73 60 61 60
84 86 84 82 86 86 89 87 86 86 86 84 90 88 91 90 92 93 90 99 90 84 88 90 95 83 79 45 51 56 59 61 53 42 44 46 34 39 36 45 54 52 71 73 74 62 61
82 78 79 82 86 86 86 83 87 83 84 86 81 85 89 92 93 94 97 98 89 86 91 91 87 86 70 47 43 64 64 53 52 44 41 43 48 53 56 55 68 60 60 75 84 70 72
81 82 83 86 87 86 88 86 84 84 85 86 87 87 90 92 94 95 100 91 87 86 92 85 76 65 41 40 58 55 58 41 42 46 59 49 63 67 54 50 41 44 54 86 76 66 80
83 82 78 79 85 86 85 78 84 83 85 88 89 87 90 94 95 97 99 94 83 77 81 76 79 79 61 51 63 52 48 47 50 54 54 57 75 56 50 44 42 53 78 92 73 65 77
77 82 82 79 84 79 85 82 83 83 82 89 92 87 85 92 93 93 98 87 87 83 85 60 68 73 55 46 66 60 42 45 52 60 61 65 55 48 46 50 49 55 68 93 76 78 74
78 74 76 76 77 81 80 83 83 83 87 88 95 89 89 89 86 90 89 78 82 70 70 56 67 54 43 46 58 50 37 43 47 57 50 47 47 49 52 53 49 60 56 66 82 76 84
80 78 80 80 82 82 84 85 85 85 88 92 98 88 86 90 85 94 76 81 69 69 71 59 68 41 44 51 52 56 39 38 55 56 51 56 55 58 58 52 44 49 58 64 72 78 82
77 80 81 82 82 84 85 87 87 88 91 96 99 97 89 88 90 77 88 73 54 66 76 64 55 52 51 44 47 46 45 36 43 49 46 47 42 47 50 45 41 55 62 66 65 70 87
79 81 82 82 83 85 87 88 88 90 95 97 71 94 87 89 87 66 80 69 76 83 41 66 64 54 52 58 55 54 60 55 61 67 66 51 51 43 43 52 53 54 67 93 92 93 89
86 82 82 82 84 85 87 88 89 91 95 66 64 86 91 87 74 77 88 71 80 52 63 70 60 57 60 53 55 55 65 70 55 52 70 71 74 56 47 50 62 65 52 80 78 94 84
83 79 81 83 84 84 86 87 89 90 83 60 78 66 56 56 58 81 83 88 72 68 70 80 61 64 65 55 56 56 69 70 56 55 60 75 69 48 50 47 44 61 66 46 67 67 85
77 79 81 82 82 84 84 85 88 89 65 64 75 75 66 81 67 89 85 74 73 60 68 70 83 63 75 66 87 80 65 56 60 54 49 54 85 62 50 47 46 56 46 60 73 88 88
79 79 80 80 81 82 83 85 87 87 48 55 78 75 63 87 91 91 92 83 66 59 61 81 96 78 62 68 62 79 66 50 49 48 54 52 58 61 58 76 65 60 63 58 54 78 82
79 78 79 80 80 82 83 84 86 86 41 46 73 67 48 72 86 89 89 58 50 54 48 65 87 89 98 64 70 60 63 54 46 41 60 50 72 90 68 49 57 79 61 61 66 87 94
79 76 78 78 80 82 82 84 85 84 81 70 53 56 48 54 94 89 74 58 50 52 56 61 78 86 88 99 99 72 58 56 54 44 66 54 97 96 84 60 54 86 96 95 94 87 88
73 76 76 78 79 81 82 83 85 83 56 62 52 37 58 71 68 69 69 68 67 47 50 42 49 45 90 99 98 99 95 58 52 56 52 50 91 89 71 76 71 74 76 85 98 97 94
74 83 77 78 79 80 81 82 83 82 32 40 70 54 62 54 73 46 49 62 60 60 49 40 46 62 66 93 97 96 89 90 74 49 68 82 94 74 59 59 64 78 73 75 80 92 84
82 72 74 78 78 80 80 81 81 81 35 65 75 82 85 64 56 43 50 81 72 58 47 55 52 47 68 95 90 96 87 94 96 97 96 96 95 71 83 60 59 82 78 86 88 92 94
73 76 77 76 77 80 79 80 79 82 48 81 94 91 85 62 55 48 56 52 52 54 49 54 57 50 51 68 53 92 99 98 98 96 97 97 95 96 95 82 80 90 86 85 91 91 93
79 83 79 76 78 79 78 80 78 78 74 73 89 88 86 51 57 56 67 62 63 72 59 60 54 49 50 71 63 68 87 90 95 96 97 96 95 95 95 95 96 98 86 87 89 93 93
72 72 80 76 78 78 77 79 76 83 79 72 78 92 96 86 78 70 83 88 72 66 71 75 61 58 53 53 52 63 59 66 84 70 96 95 95 95 95 95 92 90 93 90 83 86 90
83 75 72 77 76 78 77 80 76 76 84 75 78 74 92 97 84 80 89 93 80 78 75 69 59 60 56 65 57 76 76 62 82 74 58 95 95 90 94 94 94 87 88 88 91 80 90
83 81 74 74 76 78 76 78 75 74 85 76 79 68 86 92 89 88 84 96 94 90 91 81 72 59 61 72 83 92 86 73 91 84 84 68 81 85 86 89 81 85 90 87 75 77 86
83 74 79 76 79 76 77 78 82 76 78 94 77 69 84 87 84 74 69 91 87 93 99 79 74 67 76 88 89 90 94 93 90 91 95 89 89 89 90 81 62 95 87 77 92 97 84
76 77 78 77 79 78 78 87 88 73 77 100 83 98 68 81 85 86 80 62 74 93 92 92 89 87 92 88 92 91 95 94 92 96 70 93 96 92 98 97 97 98 98 99 98 90 91
Wind_Speed
20 20 20 20 21 21 21 20 21 19 19 19 19 17 16 15 15 14 13 11 12 5 7 9 10 14 9 3 8 1 4 22 26 22 18 7 7 5 6 5 4 5 4 11 14 21 16
20 20 20 21 21 21 21 21 21 21 20 19 19 18 17 16 16 14 13 12 10 5 6 11 13 15 4 4 4 7 4 26 25 24 13 10 7 4 5 4 3 6 15 14 9 11 7
20 20 20 21 21 21 21 21 22 21 20 20 19 19 17 17 16 15 14 12 9 7 7 12 15 15 3 11 3 3 14 22 28 24 7 8 11 5 6 7 8 10 10 8 2 5 9
19 20 20 21 21 22 21 21 22 21 20 20 19 19 19 18 16 14 14 9 8 5 8 11 14 6 6 5 7 5 9 14 18 15 16 8 8 6 4 9 5 6 5 5 2 4 2
20 21 21 22 22 22 23 22 22 22 22 21 21 20 19 18 16 14 5 3 2 7 9 11 9 4 7 5 4 10 11 13 15 11 8 10 4 4 5 6 4 1 5 4 4 9 3
21 22 22 23 23 24 24 24 23 24 23 23 21 22 20 17 14 10 4 3 6 11 11 7 2 1 5 4 5 11 10 18 5 6 5 4 4 3 3 4 7 7 6 4 5 4 13
21 22 23 23 23 24 25 25 26 26 26 24 24 21 20 16 11 7 7 9 2 3 5 7 4 3 1 0 10 6 11 9 4 5 5 3 4 9 13 7 6 7 6 7 3 4 7
21 22 23 24 25 25 26 26 27 27 26 27 25 20 17 13 9 5 4 2 4 3 4 16 11 9 8 3 3 4 20 6 6 6 6 4 16 6 8 7 8 6 8 5 4 3 6
21 22 24 25 26 26 27 27 28 29 29 26 23 19 13 9 5 5 6 8 2 15 3 3 8 5 5 5 4 8 8 4 4 7 7 9 2 10 7 5 6 3 8 6 7 7 9
22 23 24 26 26 27 28 29 30 31 29 27 21 16 12 3 2 5 4 15 13 8 3 4 5 6 5 4 3 5 9 6 3 10 5 1 3 15 6 8 7 7 8 9 16 8 4
22 23 24 26 28 28 29 30 31 32 30 26 20 12 7 5 1 2 1 6 6 1 2 3 3 2 3 6 6 3 6 4 8 6 7 7 8 7 7 7 6 4 16 12 8 5 5
21 23 25 27 28 29 30 31 32 32 30 25 17 9 2 4 4 3 4 4 2 1 5 1 3 4 5 1 2 3 3 4 4 5 1 5 2 6 11 4 10 16 9 7 4 3 3
22 23 25 27 29 31 31 32 33 33 30 26 8 2 2 1 1 8 2 4 1 3 4 1 2 4 6 3 2 4 11 6 5 5 5 2 3 2 4 7 3 6 8 3 1 4 6
22 24 26 28 30 31 33 33 33 33 31 16 5 2 1 3 4 7 2 2 3 2 2 3 2 6 6 5 3 4 8 13 4 2 3 6 4 9 5 7 9 8 11 6 8 5 4
23 25 26 28 29 31 33 35 36 35 29 9 3 2 2 5 4 2 3 2 4 2 1 4 1 3 4 4 3 4 6 14 12 8 5 4 4 2 0 2 13 7 8 9 5 2 3
23 25 27 29 31 32 34 35 36 36 25 7 2 1 4 5 1 2 3 4 4 1 1 1 2 2 6 5 8 3 7 5 10 8 4 5 3 2 1 1 1 7 9 5 1 7 6
22 24 26 28 30 32 34 35 37 37 24 5 1 3 4 2 2 2 5 5 3 1 1 2 2 3 3 2 9 10 4 2 0 5 6 5 0 1 4 4 5 2 4 2 4 4 5
21 23 25 27 30 32 34 36 36 36 25 5 2 1 2 1 2 1 2 3 5 3 1 3 3 7 1 5 4 9 9 1 2 2 8 6 4 4 2 1 3 3 1 3 8 6 1
20 22 24 27 29 32 34 36 37 35 23 5 1 2 2 1 2 2 3 3 2 2 4 3 3 4 2 6 3 2 3 3 5 4 7 5 3 3 1 1 3 3 3 0 4 2 7
19 21 23 26 29 30 33 35 38 38 19 2 2 2 4 2 1 2 3 4 3 3 3 2 2 1 2 4 3 3 3 1 3 4 1 5 3 5 13 3 3 6 6 5 5 3 5
18 20 23 25 27 30 33 35 37 40 16 2 4 0 0 2 2 4 1 3 2 3 3 2 2 6 5 5 3 5 3 2 2 1 3 1 8 4 3 2 4 2 5 7 10 3 7
17 20 22 24 25 28 31 33 34 39 19 9 2 3 4 2 2 3 3 3 2 3 2 3 4 3 5 4 4 4 4 4 4 2 3 2 2 3 3 3 4 4 4 6 4 3 6
18 20 21 23 24 26 28 30 30 31 24 8 4 2 1 2 2 1 1 3 3 6 0 1 2 3 3 4 1 1 2 3 3 4 4 4 5 3 3 4 5 1 5 4 4 2 3
17 19 20 21 23 24 26 26 25 24 24 9 5 3 2 3 1 1 3 2 3 3 4 4 2 2 0 7 9 7 7 8 5 2 0 6 4 3 3 2 5 1 2 2 7 3 2
17 18 19 21 21 23 23 24 21 20 17 14 9 2 1 3 2 2 4 4 6 4 3 3 2 2 2 3 2 2 1 1 3 1 2 1 4 3 4 2 3 1 5 7 5 1 3
17 18 19 20 21 22 22 22 21 18 17 12 4 7 1 2 1 2 3 3 3 3 5 3 3 3 0 2 2 4 4 1 2 3 3 3 4 3 2 3 6 1 2 2 1 1 7
16 18 18 19 20 21 22 21 21 19 17 11 3 9 2 2 0 1 2 3 4 3 3 3 4 1 2 1 2 3 3 1 3 5 4 3 1 4 3 2 4 2 0 1 3 3 11
16 18 18 19 21 21 22 21 20 18 17 8 4 6 1 2 0 2 1 1 3 1 1 3 1 1 0 2 2 2 2 1 3 1 1 2 2 3 3 2 5 1 0 3 2 3 9
17 17 18 19 21 21 22 21 20 16 16 7 1 3 3 3 1 2 2 1 1 2 3 2 2 1 2 0 2 3 1 2 2 2 3 1 1 3 2 1 2 3 2 2 2 5 4
Wind_Direction
3 4 2 359 357 354 352 348 348 345 341 337 335 334 328 324 323 324 323 323 306 267 268 222 204 171 137 229 255 320 305 176 167 170 160 140 133 129 139 149 121 95 121 55 89 78 76
5 2 1 358 356 356 350 348 346 342 343 339 333 333 329 323 321 321 320 315 296 262 258 209 187 162 155 247 285 304 229 167 174 173 168 154 157 157 118 136 93 96 96 118 85 98 111
0 1 360 359 356 354 350 348 347 345 339 338 334 331 323 324 320 319 319 311 303 260 227 201 183 168 179 248 36 350 165 173 178 180 140 161 163 112 130 102 164 139 97 102 87 112 141
2 0 0 360 358 353 350 350 346 342 340 336 334 331 326 320 319 319 320 325 315 202 188 188 173 151 250 266 280 197 157 155 174 171 170 164 153 113 108 112 86 85 83 119 139 167 117
3 1 0 359 357 354 351 349 346 342 339 336 332 328 324 320 319 318 309 1 93 133 156 167 148 134 255 293 192 189 178 145 154 148 142 153 87 133 97 108 75 100 149 105 126 20 123
1 1 0 358 356 355 352 349 347 343 339 335 330 327 322 317 316 311 317 116 125 126 131 143 105 110 256 222 169 156 179 156 123 121 77 99 67 115 63 111 186 173 157 95 122 29 63
3 1 2 359 357 356 353 350 347 344 339 334 330 325 320 314 308 299 113 124 89 82 244 194 218 259 302 120 133 145 149 110 91 83 151 164 136 195 193 165 139 144 123 110 72 41 76
4 3 1 0 358 357 355 351 348 344 340 334 329 326 322 309 293 274 214 255 73 298 261 230 245 257 274 231 110 141 156 127 139 166 129 98 211 184 125 140 133 99 118 97 91 100 88
4 5 2 0 358 356 356 352 348 345 340 337 332 327 326 312 283 242 196 215 111 4 237 237 197 221 218 159 188 188 147 114 135 147 183 182 212 138 137 143 134 129 147 173 146 116 61
6 3 1 1 358 356 356 352 349 346 343 338 336 333 328 314 214 193 205 232 268 329 7 217 186 244 173 169 204 160 171 143 148 181 123 215 178 170 158 181 143 163 156 123 134 149 195
8 3 3 1 358 357 353 352 351 347 344 341 339 342 329 195 105 246 133 239 253 122 328 133 174 338 155 162 138 218 178 74 159 164 141 219 163 159 182 183 158 184 138 143 159 108 117
8 4 3 1 358 356 353 353 351 350 346 341 334 344 344 176 265 296 313 96 135 17 252 129 129 148 125 142 83 100 137 68 142 126 125 189 146 152 185 144 160 127 91 69 110 108 254
6 5 2 360 359 356 354 353 353 351 349 344 337 35 154 254 291 337 302 97 97 201 349 123 184 156 157 147 111 186 168 196 163 134 184 144 201 198 148 100 76 118 121 91 167 195 234
6 4 1 0 359 357 355 353 353 353 353 0 9 73 187 247 309 342 297 65 247 262 339 0 255 142 185 150 166 187 178 200 230 126 140 167 206 170 193 170 171 181 171 161 199 191 175
7 4 1 0 359 359 356 354 353 354 357 12 45 38 10 356 340 317 71 131 239 205 225 332 300 145 218 173 93 150 205 212 207 178 176 173 246 42 304 162 151 202 205 178 112 60 130
6 5 2 1 0 360 358 356 354 354 357 10 358 37 4 349 117 59 70 241 228 204 167 127 277 195 194 192 159 212 194 211 202 178 141 207 212 173 181 214 162 184 159 176 107 168 227
7 5 4 2 1 0 359 359 355 354 355 358 4 44 353 85 100 76 214 249 292 103 310 151 247 315 316 214 198 181 219 265 177 152 165 163 254 163 128 253 176 170 178 217 156 165 197
6 5 5 3 2 2 0 360 360 357 355 19 65 38 332 293 50 251 225 320 345 294 3 264 183 182 188 319 292 200 201 201 22 107 166 181 131 185 152 55 43 74 315 239 215 210 78
4 4 5 3 3 2 1 0 360 359 359 337 72 257 4 45 180 270 288 275 239 279 260 216 253 206 167 191 262 315 9 26 347 188 163 193 174 148 215 117 14 217 196 66 68 21 191
0 2 4 4 2 2 1 1 0 358 4 13 65 2 328 37 136 182 292 259 264 163 268 297 295 13 152 222 240 255 228 110 21 314 187 138 173 212 232 158 134 172 181 175 170 179 161
359 2 1 3 2 1 1 2 3 1 8 15 27 165 159 302 5 345 295 312 273 287 207 196 258 228 192 221 207 224 178 224 306 25 6 342 197 122 63 89 94 89 155 165 203 181 197
4 2 359 0 2 2 3 3 6 6 11 68 50 21 352 264 305 314 287 292 276 310 238 235 233 351 217 243 234 229 150 184 225 145 149 358 215 117 109 86 129 122 121 111 92 106 83
356 358 359 0 360 2 3 5 8 11 25 57 27 31 95 299 351 77 244 310 325 346 352 94 293 297 267 253 274 178 133 80 144 165 157 148 140 159 169 124 143 197 188 139 107 62 115
358 356 355 358 359 360 3 4 8 16 22 41 13 326 21 289 322 249 352 307 286 295 273 312 302 242 325 124 104 70 68 67 60 49 210 138 115 80 111 190 205 67 358 360 113 76 7
352 354 354 355 355 357 360 0 3 6 6 10 20 17 37 293 271 304 348 295 303 284 258 255 256 280 329 296 107 117 271 212 84 45 235 117 120 111 150 183 341 223 195 163 176 166 169
354 351 350 352 352 352 355 356 356 354 356 357 354 12 27 318 289 344 319 320 301 300 318 261 293 244 333 246 197 174 210 227 171 123 109 135 87 90 134 162 198 83 166 88 317 8 155
346 350 349 349 350 350 350 351 350 348 354 346 320 356 250 262 134 156 312 301 323 291 260 296 316 161 38 239 210 181 225 297 179 159 159 141 102 142 163 160 296 257 66 345 153 164 136
348 347 348 346 344 346 345 346 345 341 345 329 323 1 223 229 225 202 48 344 320 305 274 318 351 282 344 232 181 181 144 162 78 5 18 149 159 129 109 129 227 4 66 168 127 19 115
347 347 344 342 338 343 342 339 340 332 340 338 299 310 14 117 182 205 167 140 186 250 284 283 277 285 329 122 39 88 98 51 143 199 35 193 25 131 31 8 330 330 8 347 320 105 109